Theta_e
292 288 285 287 289 290 288 285 284 287 291 288 289 289 292 296 294 294 296 299 301 303 306 307 309 307 307 305 304 304 306 312 338 336 338 336 340 339 339 342 343 343 342 343
289 286 291 293 292 290 288 286 286 289 291 289 290 290 292 293 293 295 300 301 302 304 306 308 309 310 309 306 305 304 306 310 334 338 336 337 337 336 338 338 340 343 343 343
287 290 294 293 290 290 287 286 286 286 290 291 288 286 288 292 296 301 302 303 304 304 304 306 307 308 309 309 305 306 306 310 323 333 334 334 336 336 334 333 334 337 340 343
289 293 292 290 290 290 285 291 290 289 286 282 288 279 284 289 293 298 300 301 302 304 305 306 306 308 309 311 307 306 307 309 317 330 333 331 329 325 327 330 334 335 337 340
291 290 291 289 290 293 289 293 291 290 284 281 283 279 284 289 291 295 299 302 303 304 304 305 306 307 310 311 312 312 312 316 320 328 329 326 322 322 328 330 331 334 336 338
291 294 292 292 295 294 294 289 286 283 281 276 281 282 281 285 292 296 300 302 304 305 305 307 309 308 307 311 311 314 315 315 318 322 323 321 318 322 323 327 328 330 332 336
290 290 294 296 290 292 291 284 276 276 275 275 283 282 284 290 297 299 300 302 303 305 305 306 306 307 307 307 309 311 312 314 318 321 322 321 320 321 321 323 328 328 327 332
282 283 291 295 291 288 286 284 277 275 274 278 286 278 284 294 301 302 304 303 304 305 306 308 307 307 308 307 308 309 310 312 314 316 319 326 325 323 323 326 329 328 328 329
285 285 294 295 294 293 286 283 285 281 278 275 279 284 290 297 297 300 302 303 301 302 305 305 307 308 308 308 307 307 309 311 313 314 316 318 320 324 328 329 330 329 329 331
289 283 292 294 295 293 289 290 280 278 273 274 278 279 280 288 294 298 296 297 300 301 304 305 306 307 308 309 309 308 309 310 312 316 317 318 319 321 326 329 328 328 329 331
289 286 287 291 289 287 287 283 285 285 281 275 275 278 288 292 294 293 296 295 297 299 302 305 307 309 311 311 309 309 308 311 313 315 319 320 322 323 325 325 326 328 327 326
291 286 281 287 293 293 289 286 285 278 276 279 276 281 293 292 293 296 293 296 297 299 301 306 309 311 311 309 308 307 308 310 312 314 318 321 323 324 323 325 325 324 321 320
292 282 278 280 282 288 285 288 286 283 281 278 279 281 292 292 293 296 295 295 297 299 301 301 302 302 304 306 307 307 307 308 311 313 316 319 321 321 320 321 323 320 319 319
298 283 282 275 281 284 284 287 288 285 282 283 283 285 290 292 291 294 297 296 298 300 301 300 299 299 301 304 306 307 306 307 310 312 316 318 320 320 319 319 319 319 319 315
288 281 283 285 288 287 286 286 287 286 287 284 286 287 290 294 295 295 296 297 296 297 299 298 297 298 300 302 303 306 306 306 308 311 315 316 319 319 317 316 314 313 310 309
287 278 282 282 287 288 286 288 289 289 289 288 289 289 296 298 298 296 295 294 295 297 298 298 298 300 300 301 302 304 303 303 307 309 314 316 315 316 314 312 311 309 308 307
281 279 284 279 286 287 280 285 288 289 290 291 287 291 296 295 294 294 294 295 295 296 297 297 297 298 299 299 302 301 301 303 304 308 314 314 313 311 310 309 307 305 304 303
282 284 286 282 283 267 283 292 293 290 292 294 293 293 295 294 296 298 298 295 295 296 296 296 298 298 297 299 300 301 302 302 303 306 313 312 310 307 306 305 304 303 302 301
288 288 281 277 278 281 286 292 290 288 287 294 292 294 295 296 296 294 296 295 295 296 298 299 300 300 300 298 299 300 300 301 301 303 309 309 307 305 304 302 301 300 298 297
289 286 278 274 274 274 283 293 294 294 283 293 295 294 293 295 287 290 296 296 296 298 299 299 300 300 300 301 300 298 299 300 300 309 307 308 306 303 300 299 298 297 297 296
281 280 275 277 280 282 290 292 295 280 281 294 296 296 295 291 293 294 296 296 297 298 298 300 300 299 300 301 301 300 299 299 304 308 307 304 301 299 298 297 297 296 295 295
279 279 275 282 279 274 292 291 284 289 294 295 296 295 293 294 294 295 296 295 297 297 298 299 299 299 300 301 301 300 299 302 306 304 301 300 299 299 298 296 295 295 295 294
279 284 284 284 280 287 293 292 294 297 296 295 293 294 293 294 294 294 294 296 296 297 298 300 298 298 300 302 301 299 301 305 302 299 298 297 298 298 298 296 295 295 296 295
288 289 286 286 288 289 291 293 297 297 294 295 294 294 295 293 294 294 295 295 295 297 296 297 297 297 298 301 302 301 303 301 298 297 296 297 297 297 298 298 297 295 295 295
290 290 287 286 289 292 294 296 297 295 294 294 295 296 295 295 294 294 294 294 295 294 295 297 297 297 298 301 301 301 302 299 296 296 296 296 297 296 294 294 295 294 293 295
288 285 285 286 293 292 292 295 296 293 293 295 294 294 295 294 293 293 293 293 293 294 296 299 300 299 300 301 301 300 299 298 296 295 295 296 295 294 295 293 290 291 291 291
Wind_Speed
4 7 2 5 6 5 4 4 7 6 8 3 8 7 12 16 8 8 8 8 10 12 11 11 11 13 13 12 9 10 8 11 5 3 4 3 6 5 3 5 7 8 7 9
7 3 8 4 4 5 5 5 7 6 4 2 9 14 13 9 5 2 6 9 11 13 16 17 16 14 12 14 11 9 10 7 8 5 2 3 3 2 2 3 5 4 2 5
5 6 3 4 3 4 4 4 4 6 4 5 6 7 1 3 3 6 5 5 7 9 13 15 18 15 15 17 14 9 9 9 9 7 4 4 4 2 1 1 1 3 5 7
5 3 2 2 5 4 4 4 5 7 4 6 3 9 5 1 5 5 7 8 9 12 12 14 18 21 20 18 11 7 5 7 2 6 4 7 5 4 1 3 1 3 4 6
9 2 5 3 3 2 6 4 6 8 5 3 2 1 8 3 3 5 7 8 9 8 9 15 18 18 19 19 16 9 3 2 4 7 6 1 4 3 3 1 3 2 2 4
6 3 2 4 2 2 4 4 2 4 3 1 3 3 5 3 4 4 4 7 8 8 8 11 15 17 19 20 19 15 8 4 8 7 6 5 6 4 4 3 3 2 3 3
6 4 3 2 3 4 8 7 6 7 5 5 2 4 10 7 4 5 6 8 10 8 7 7 15 17 18 19 17 14 10 11 5 4 8 7 7 8 7 6 4 4 3 3
2 8 1 1 4 4 1 6 6 6 4 10 9 8 7 3 4 5 6 8 8 10 8 9 8 13 16 15 16 13 14 13 11 9 6 2 4 3 4 5 4 4 4 4
4 5 4 4 2 6 3 3 4 3 1 3 5 7 7 0 2 2 7 6 8 8 8 7 8 11 15 14 13 13 9 11 11 8 6 6 5 3 4 6 5 4 4 2
4 8 5 3 2 1 3 6 1 3 4 5 6 5 6 4 5 6 6 8 9 9 8 7 6 9 14 10 9 11 8 6 7 6 6 5 5 5 4 4 5 4 4 5
2 5 6 2 5 8 4 1 3 2 5 6 4 7 7 7 8 7 8 9 9 10 8 6 3 5 5 16 9 8 8 7 8 8 7 7 9 9 7 5 5 5 5 4
2 2 6 12 11 5 4 6 7 6 7 5 4 14 6 7 2 3 6 7 8 7 8 6 6 5 2 6 11 8 7 6 6 7 6 9 8 10 8 7 6 4 4 5
1 3 7 10 8 3 2 3 4 0 2 8 6 12 1 3 6 7 4 6 7 6 7 6 6 5 3 4 1 7 7 7 7 6 5 5 8 8 7 6 3 5 4 4
3 4 8 7 12 5 11 16 9 6 6 15 18 26 15 14 8 11 4 6 6 7 10 6 5 5 5 5 3 4 5 6 6 6 4 4 4 5 4 4 4 5 4 6
3 4 5 8 15 17 18 20 16 14 20 12 25 18 15 15 15 10 5 5 7 8 13 9 7 6 7 9 7 3 4 6 4 4 3 2 2 5 4 6 6 8 8 7
4 5 3 6 8 5 9 17 13 14 18 17 20 21 12 12 4 4 5 7 8 13 11 11 6 3 4 7 7 6 5 7 7 6 4 2 3 4 6 6 6 8 8 8
2 1 3 5 5 13 10 5 3 5 4 5 6 7 11 9 5 5 7 8 12 14 12 8 9 5 5 5 4 5 8 7 6 7 6 3 2 5 7 6 8 9 9 10
4 2 1 5 9 3 8 3 1 3 6 3 11 12 8 5 6 11 12 13 12 11 11 9 8 8 7 8 6 6 6 8 5 6 5 1 3 5 8 8 10 10 10 11
5 2 3 3 5 11 9 2 3 3 13 5 4 9 14 11 9 14 11 6 10 15 15 8 10 10 10 8 8 7 6 8 6 5 5 2 3 7 9 10 10 10 12 13
3 0 5 2 4 6 4 0 9 2 6 1 12 17 18 10 13 15 12 14 15 14 13 14 14 12 10 10 7 6 6 6 5 3 4 3 6 8 11 11 12 12 13 14
4 3 4 3 6 9 2 7 5 3 6 9 13 14 9 13 14 20 18 17 15 15 15 15 14 13 12 10 8 8 4 3 4 1 6 9 11 11 12 13 12 13 14 14
2 1 3 3 4 8 0 12 2 6 11 10 8 14 19 17 17 18 19 19 16 16 16 16 15 13 12 11 9 7 4 3 4 9 11 11 11 9 10 15 13 14 14 15
3 6 3 6 8 7 13 15 11 11 10 10 17 15 15 17 17 20 19 18 16 16 16 9 13 13 11 9 8 6 6 6 10 12 12 12 12 11 12 14 14 11 12 10
4 4 5 3 7 11 9 8 10 8 18 18 13 14 15 18 20 19 18 15 16 13 14 14 13 11 9 7 7 7 8 13 13 13 12 12 13 14 13 11 11 10 7 8
6 1 6 9 14 12 12 12 15 16 17 14 14 16 18 17 17 20 15 18 13 17 16 13 12 10 8 7 9 9 13 16 14 13 12 12 12 14 13 11 9 9 5 3
5 7 3 7 10 12 16 16 14 16 17 14 19 16 14 15 17 17 14 14 14 15 16 12 11 9 10 12 11 15 16 17 16 14 10 10 11 10 11 12 9 15 11 14
Wind_Direction
16 62 148 226 191 202 215 226 251 257 266 220 254 260 270 280 306 325 341 321 318 315 302 296 311 309 315 280 259 226 211 214 182 165 173 180 208 209 208 212 202 208 202 201
21 155 214 210 206 215 217 249 265 282 257 204 279 285 242 272 280 47 328 333 333 325 324 329 333 332 319 305 271 239 216 205 195 198 178 138 147 170 169 205 228 232 228 213
156 239 179 183 288 295 263 230 268 251 302 252 297 287 204 301 15 4 358 316 326 331 328 333 343 341 335 328 293 244 231 218 188 187 127 88 77 69 138 96 189 220 214 218
225 258 230 262 258 165 299 191 252 273 333 283 73 287 295 287 306 2 342 346 333 339 345 352 353 360 357 336 301 282 244 229 134 138 177 153 165 161 153 191 155 251 214 226
251 277 279 266 228 145 228 287 244 263 244 23 274 11 268 218 301 322 326 328 320 317 344 350 354 356 4 351 358 348 25 138 145 159 144 78 96 114 193 147 227 237 242 237
246 264 213 216 128 108 302 337 346 50 99 34 230 99 276 256 218 295 294 309 313 316 332 352 355 358 3 357 5 6 348 80 107 120 128 144 138 154 177 196 230 229 251 243
336 290 288 109 30 6 34 41 332 346 2 236 241 316 239 262 210 221 264 297 302 303 328 7 2 357 352 356 356 4 358 25 1 132 121 168 178 190 204 208 220 217 250 246
91 328 230 151 149 233 148 142 147 292 266 280 281 245 254 235 179 236 273 274 292 330 344 356 359 1 345 350 341 355 3 16 24 36 23 285 256 231 220 209 231 238 231 240
301 260 275 241 204 144 192 187 190 215 260 9 240 290 317 69 288 289 273 312 312 309 314 328 346 19 346 337 337 329 359 0 15 19 23 17 15 336 264 251 249 271 287 308
286 299 255 293 70 280 185 164 30 17 289 267 285 258 242 282 242 263 312 316 303 310 308 314 338 16 355 329 317 325 337 1 336 7 17 8 347 334 284 249 254 283 327 321
244 164 283 8 209 224 281 246 68 139 165 211 290 261 208 222 244 281 297 310 312 320 305 294 340 27 2 328 327 308 332 355 11 3 356 10 1 354 351 0 1 346 346 356
314 181 266 255 264 264 172 217 165 154 246 237 199 267 231 258 327 322 297 299 337 331 345 276 298 338 357 298 306 315 327 346 351 345 3 9 5 356 350 342 337 23 47 49
305 298 317 322 355 2 107 190 203 97 82 212 247 265 256 287 296 297 320 307 304 342 352 354 5 345 306 265 202 292 317 329 334 335 9 12 2 355 353 354 17 69 74 89
242 202 187 213 267 220 282 274 246 192 250 268 257 280 287 293 280 291 292 291 310 353 328 319 311 318 314 279 250 257 294 305 313 327 9 29 32 13 17 15 27 63 63 73
96 242 212 241 266 279 272 276 269 245 248 248 273 274 276 295 293 291 273 314 322 323 321 320 328 328 324 321 316 319 308 301 310 332 354 19 51 92 50 49 47 67 70 72
13 275 324 276 263 296 287 279 271 252 261 258 263 273 275 274 301 310 316 317 300 308 307 303 298 308 338 343 342 338 325 320 328 333 330 44 70 84 80 73 75 75 76 73
238 179 323 267 348 317 295 266 269 268 282 304 286 311 326 300 308 302 305 296 288 290 295 284 290 288 290 293 307 325 310 320 333 336 344 358 90 88 82 81 79 75 75 80
160 174 276 286 330 328 239 339 113 315 282 355 288 290 297 303 293 296 288 272 276 274 269 270 278 274 277 282 280 281 294 304 325 347 341 28 87 96 84 84 82 82 82 77
172 140 294 251 275 273 288 102 348 326 298 320 358 340 317 295 287 286 266 250 269 290 294 295 292 273 284 267 268 273 286 287 320 324 288 143 128 104 94 86 82 78 80 74
149 300 136 354 253 270 260 267 305 292 274 236 342 318 299 295 300 301 317 312 303 300 299 299 293 287 276 264 247 247 261 282 304 301 282 121 91 90 88 87 84 85 81 81
306 323 188 255 263 282 181 322 321 52 265 296 311 303 303 302 283 300 305 294 294 294 290 284 280 275 270 266 253 245 243 267 260 168 87 80 87 95 96 93 90 92 90 87
232 253 249 253 263 278 12 351 65 257 297 300 306 303 294 291 291 296 297 294 293 290 286 276 271 266 259 250 241 233 185 210 142 96 93 94 97 99 100 99 94 93 91 89
283 189 235 214 235 256 301 298 288 288 286 307 303 301 296 290 297 295 295 296 293 292 282 277 281 272 264 240 219 201 149 121 101 100 101 102 102 97 96 99 98 91 92 96
262 209 244 298 261 257 281 293 299 310 307 301 288 286 293 293 295 296 298 298 298 288 291 281 270 257 248 227 192 160 145 115 107 109 112 112 107 101 97 98 99 97 95 94
251 223 226 254 280 288 277 300 289 291 302 291 291 291 286 294 297 300 301 299 301 292 284 272 255 235 217 177 148 144 124 119 122 117 117 115 106 100 96 83 86 93 68 82
171 216 204 265 296 288 291 300 298 301 300 298 297 299 305 303 297 306 299 304 294 292 287 269 227 167 152 142 134 127 130 130 125 123 121 118 112 105 105 106 94 54 71 78